Weather History for Coleman, TX

Change the Weather History Date:

Thursday, September 19, 2013

  Actual Average (KABI) Record (KABI)
Temperature  
Mean Temperature 75 °F 74 °F  
Max Temperature 78 °F 86 °F 99 °F (1956)
Min Temperature 71 °F 63 °F 45 °F (1991)
Degree Days  
Heating Degree Days 0 0  
Month to date heating degree days 0  
Since 1 July heating degree days 0  
Cooling Degree Days 10 10  
Month to date cooling degree days 237  
Year to date cooling degree days 2182  
Growing Degree Days 25 (Base 50)    
Moisture  
Dew Point 68 °F    
Average Humidity 79    
Maximum Humidity 93    
Minimum Humidity 52    
Precipitation  
Precipitation 0.64 in 0.07 in 1.88 in (1896)
Month to date precipitation 1.45  
Year to date precipitation 18.41  
Sea Level Pressure  
Sea Level Pressure 29.97 in    
Wind  
Wind Speed 6 mph (SE)    
Max Wind Speed 10 mph    
Max Gust Speed -    
Visibility 9 miles    
Events Rain    
T = Trace of Precipitation, MM = Missing Value Source: NWS Daily Summary

Daily Weather History Graph

Daily Weather History Graph

Search for Another Location

Airport:

Trip Planner

Search our weather history database for the weather conditions in past years. The results will help you decide how hot, cold, wet, or windy it might be!

Date:

Astronomy

Sep. 19, 2013 Rise Set
Actual Time 7:24 AM CDT 7:37 PM CDT
Civil Twilight 6:59 AM CDT 8:02 PM CDT
Nautical Twilight 6:31 AM CDT 8:30 PM CDT
Astronomical Twilight 6:02 AM CDT 8:59 PM CDT
Moon 7:42 PM CDT (9/19) 7:31 AM CDT (9/19)
Length of Visible Light 13h 02m
Length of Day
12h 13m
Full, 100% of the Moon is Illuminated
Sep 19
Full
Sep 26
Last Quarter
Oct 4
New
Oct 11
First Quarter
Oct 18
Full

Hourly Weather History & Observations

Time (CDT) Temp. Dew Point Humidity Pressure Visibility Wind Dir Wind Speed Gust Speed Precip Events Conditions
12:15 AM 79.2 °F 59.9 °F 52% 29.97 in 10.0 mi South 8.1 mph - N/A   Clear
12:35 AM 78.3 °F 60.1 °F 53% 29.97 in 10.0 mi SSW 6.9 mph - N/A   Clear
12:55 AM 77.9 °F 60.8 °F 56% 29.97 in 10.0 mi South 5.8 mph - N/A   Scattered Clouds
1:15 AM 77.5 °F 61.0 °F 57% 29.98 in 10.0 mi South 5.8 mph - N/A   Clear
1:35 AM 77.4 °F 61.7 °F 58% 29.97 in 10.0 mi South 5.8 mph - N/A   Clear
1:55 AM 77.0 °F 62.6 °F 61% 29.97 in 10.0 mi South 6.9 mph - N/A   Clear
2:15 AM 77.4 °F 63.5 °F 62% 29.97 in 10.0 mi South 8.1 mph - N/A   Clear
2:35 AM 77.0 °F 64.0 °F 64% 29.98 in 10.0 mi South 8.1 mph - N/A   Scattered Clouds
2:55 AM 76.5 °F 64.4 °F 66% 29.98 in 10.0 mi SSW 8.1 mph - N/A   Scattered Clouds
3:15 AM 76.5 °F 64.8 °F 67% 29.97 in 10.0 mi South 6.9 mph - N/A   Scattered Clouds
3:35 AM 75.7 °F 64.6 °F 68% 29.97 in 10.0 mi South 5.8 mph - N/A   Clear
3:55 AM 75.4 °F 64.9 °F 70% 29.96 in 10.0 mi South 5.8 mph - N/A   Clear
4:15 AM 74.7 °F 64.8 °F 71% 29.96 in 10.0 mi South 5.8 mph - N/A   Scattered Clouds
4:35 AM 75.2 °F 65.5 °F 72% 29.96 in 10.0 mi South 6.9 mph - N/A   Scattered Clouds
4:55 AM 75.2 °F 65.7 °F 72% 29.96 in 10.0 mi South 8.1 mph - N/A   Clear
5:15 AM 74.8 °F 65.7 °F 73% 29.96 in 10.0 mi South 6.9 mph - N/A   Clear
5:35 AM 74.3 °F 65.8 °F 75% 29.96 in 10.0 mi South 5.8 mph - N/A   Clear
5:55 AM 73.9 °F 65.8 °F 76% 29.96 in 10.0 mi South 4.6 mph - N/A   Clear
6:15 AM 73.8 °F 66.2 °F 77% 29.96 in 10.0 mi South 4.6 mph - N/A   Clear
6:35 AM 73.6 °F 66.2 °F 78% 29.97 in 10.0 mi South 4.6 mph - N/A   Clear
6:55 AM 73.4 °F 66.2 °F 78% 29.97 in 10.0 mi South 4.6 mph - N/A   Clear
7:15 AM 73.4 °F 66.4 °F 79% 29.98 in 10.0 mi South 4.6 mph - N/A   Clear
7:35 AM 73.4 °F 66.6 °F 79% 29.98 in 10.0 mi SSE 5.8 mph - N/A   Clear
7:55 AM 73.6 °F 67.1 °F 80% 29.98 in 10.0 mi South 4.6 mph - N/A   Clear
8:15 AM 73.8 °F 66.7 °F 79% 29.99 in 10.0 mi SSE 5.8 mph - N/A   Clear
8:35 AM 73.9 °F 67.1 °F 79% 29.99 in 10.0 mi South 5.8 mph - N/A   Clear
8:55 AM 74.3 °F 67.3 °F 79% 30.00 in 10.0 mi South 6.9 mph - N/A   Scattered Clouds
9:15 AM 74.8 °F 67.5 °F 78% 30.01 in 10.0 mi South 6.9 mph - N/A   Scattered Clouds
9:35 AM 75.2 °F 67.8 °F 78% 30.01 in 10.0 mi South 6.9 mph - N/A Rain Light Rain
9:55 AM 75.2 °F 68.0 °F 78% 30.03 in 10.0 mi South 8.1 mph - N/A Rain Light Rain
10:15 AM 75.2 °F 68.2 °F 79% 30.03 in 10.0 mi South 6.9 mph - N/A   Light Drizzle
10:35 AM 75.2 °F 68.4 °F 79% 30.03 in 10.0 mi South 8.1 mph - N/A   Light Drizzle
10:55 AM 75.6 °F 68.4 °F 78% 30.03 in 10.0 mi South 6.9 mph - N/A Rain Rain
11:15 AM 75.2 °F 69.1 °F 81% 30.03 in 10.0 mi SSE 8.1 mph - N/A Rain Light Rain
11:35 AM 75.0 °F 69.4 °F 83% 30.03 in 10.0 mi SSE 5.8 mph - N/A Rain Light Rain
11:55 AM 75.4 °F 70.0 °F 83% 30.03 in 10.0 mi SE 4.6 mph - N/A Rain Light Rain
12:15 PM 75.2 °F 69.6 °F 83% 30.03 in 10.0 mi SSE 4.6 mph - 0.01 in Rain Rain
12:35 PM 75.6 °F 69.4 °F 81% 30.01 in 10.0 mi ESE 3.5 mph - 0.01 in Rain Light Rain
12:55 PM 76.1 °F 69.8 °F 81% 30.01 in 10.0 mi ESE 3.5 mph - 0.01 in Rain Light Rain
1:15 PM 75.7 °F 69.1 °F 80% 30.01 in 10.0 mi Calm Calm - N/A Rain Light Rain
1:35 PM 76.1 °F 69.4 °F 80% 30.01 in 10.0 mi ESE 3.5 mph - N/A Rain Light Rain
1:55 PM 77.2 °F 70.2 °F 79% 30.00 in 10.0 mi East 3.5 mph - N/A Rain Light Rain
2:15 PM 77.0 °F 69.1 °F 76% 29.99 in 10.0 mi East 5.8 mph - N/A   Mostly Cloudy
2:35 PM 77.0 °F 69.6 °F 78% 29.98 in 10.0 mi ENE 6.9 mph - N/A   Light Drizzle
2:55 PM 77.5 °F 69.1 °F 75% 29.97 in 10.0 mi NE 6.9 mph - N/A   Clear
3:15 PM 78.1 °F 69.1 °F 74% 29.95 in 10.0 mi NNE 8.1 mph - N/A   Scattered Clouds
3:35 PM 77.9 °F 68.2 °F 72% 29.95 in 10.0 mi ENE 9.2 mph - N/A   Scattered Clouds
3:55 PM 77.2 °F 69.4 °F 77% 29.94 in 10.0 mi NE 9.2 mph - N/A Rain Light Rain
4:15 PM 76.5 °F 70.3 °F 81% 29.95 in 10.0 mi ENE 9.2 mph - 0.01 in Rain Rain
4:35 PM 75.6 °F 69.8 °F 82% 29.95 in 7.0 mi NE 6.9 mph - 0.01 in Rain Rain
4:55 PM 74.5 °F 69.8 °F 85% 29.95 in 4.0 mi East 6.9 mph - 0.07 in Rain Heavy Rain
5:15 PM 72.9 °F 69.6 °F 90% 29.94 in 5.0 mi NE 10.4 mph - 0.06 in Rain Rain
5:35 PM 72.9 °F 69.8 °F 90% 29.95 in 7.0 mi ENE 6.9 mph - 0.08 in Rain Rain
5:55 PM 72.0 °F 69.3 °F 91% 29.95 in 5.0 mi NE 4.6 mph - 0.12 in Rain Rain
6:15 PM 71.6 °F 68.5 °F 90% 29.95 in 7.0 mi NNE 5.8 mph - 0.04 in Rain Rain
6:35 PM 71.2 °F 68.5 °F 91% 29.94 in 7.0 mi NNE 4.6 mph - 0.08 in Rain Rain
6:55 PM 71.6 °F 68.5 °F 90% 29.94 in 10.0 mi NNE 4.6 mph - 0.09 in Rain Light Rain
7:15 PM 71.6 °F 68.5 °F 90% 29.94 in 10.0 mi Calm Calm - 0.01 in Rain Light Rain
7:35 PM 71.6 °F 68.4 °F 89% 29.94 in 10.0 mi Calm Calm - 0.02 in Rain Light Rain
7:55 PM 71.8 °F 68.5 °F 89% 29.94 in 10.0 mi NNW 3.5 mph - 0.03 in Rain Light Rain
8:15 PM 71.8 °F 69.1 °F 91% 29.94 in 7.0 mi NNW 3.5 mph - 0.02 in Rain Rain
8:35 PM 72.0 °F 69.8 °F 93% 29.95 in 7.0 mi NNW 4.6 mph - 0.08 in Rain Rain
8:55 PM 72.1 °F 70.0 °F 93% 29.94 in 2.5 mi NE 5.8 mph - 0.21 in Rain Heavy Rain
9:15 PM 72.1 °F 70.2 °F 93% 29.96 in 5.0 mi Calm Calm - 0.04 in Rain Rain
9:35 PM 72.5 °F 70.2 °F 92% 29.96 in 5.0 mi Calm Calm - 0.07 in Rain Light Rain
9:55 PM 72.5 °F 70.2 °F 92% 29.96 in 7.0 mi Calm Calm - 0.09 in Rain Light Rain
10:15 PM 72.1 °F 70.0 °F 93% 29.96 in 10.0 mi Calm Calm - 0.01 in Rain Rain
10:35 PM 72.1 °F 70.0 °F 93% 29.96 in 10.0 mi Calm Calm - 0.01 in   Light Drizzle
10:55 PM 72.1 °F 70.0 °F 93% 29.96 in 10.0 mi Calm Calm - 0.01 in   Light Drizzle
11:15 PM 72.0 °F 70.0 °F 93% 29.96 in 10.0 mi East 3.5 mph - 0.01 in Rain Rain
11:35 PM 72.0 °F 70.0 °F 93% 29.96 in 10.0 mi East 8.1 mph - 0.01 in   Light Drizzle
11:55 PM 72.0 °F 70.0 °F 93% 29.96 in 10.0 mi East 6.9 mph - 0.01 in Rain Light Rain